Ft. Stewart, GA

5:20 PM EDT on May 24, 2018 (GMT -0400)
Wright Army Air Field

Weather History for KLHW - December, 2012

Change the Weather History Date:

Wednesday, December 5, 2012

  Actual Average Record
Temperature  
Mean Temperature 60 °F -  
Max Temperature 76 °F 65 °F 80 °F (1982)
Min Temperature 44 °F 40 °F 24 °F (2000)
Degree Days  
Heating Degree Days 5    
Growing Degree Days 10 (Base 50)    
Moisture  
Dew Point 48 °F    
Average Humidity 94    
Maximum Humidity 100    
Minimum Humidity 39    
Precipitation  
Precipitation 0.00 in - - ()
Sea Level Pressure  
Sea Level Pressure 30.19 in    
Wind  
Wind Speed 0 mph (North)    
Max Wind Speed 6 mph    
Max Gust Speed -    
Visibility 4 miles    
Events Fog    
Averages and records for this station are not official NWS values.
T = Trace of Precipitation, MM = Missing Value Source: NWS Daily Summary

Daily Weather History Graph

Daily Weather History Graph

Search for Another Location

Airport or City:

Astronomy

Dec. 05, 2012 Rise Set
Actual Time 7:12 AM EST 5:21 PM EST
Civil Twilight 6:45 AM EST 5:48 PM EST
Nautical Twilight 6:15 AM EST 6:18 PM EST
Astronomical Twilight 5:45 AM EST 6:48 PM EST
Moon 11:52 PM EST (12/5) 11:51 AM EST (12/5)
Length of Visible Light 11h 03m
Length of Day
10h 09m
Waning Gibbous, 60% of the Moon is Illuminated
Dec 5
Waning Gibbous
Dec 6
Last Quarter
Dec 13
New
Dec 20
First Quarter
Dec 28
Full

Hourly Weather History & Observations

Time (EST) Temp. Windchill Dew Point Humidity Pressure Visibility Wind Dir Wind Speed Gust Speed Precip Events Conditions
12:33 AM 50.0 °F - 50.0 °F 100% 30.25 in 2.5 mi Calm Calm - N/A   Clear
12:35 AM 50.0 °F - 50.0 °F 100% 30.25 in 1.8 mi Calm Calm - N/A   Clear
12:37 AM 50.0 °F - 50.0 °F 100% 30.25 in 1.5 mi Calm Calm - N/A   Clear
12:41 AM 50.0 °F - 50.0 °F 100% 30.25 in 1.8 mi Calm Calm - N/A   Clear
12:42 AM 50.0 °F - 50.0 °F 100% 30.25 in 2.0 mi Calm Calm - N/A   Clear
12:43 AM 50.0 °F - 50.0 °F 100% 30.25 in 3.0 mi Calm Calm - N/A   Clear
12:55 AM 49.8 °F - 49.8 °F 100% 30.24 in 10.0 mi Calm Calm - N/A   Clear
1:55 AM 49.6 °F - 49.5 °F 99% 30.24 in 10.0 mi Calm Calm - N/A   Clear
2:55 AM 48.6 °F - 48.6 °F 100% 30.22 in 9.0 mi Calm Calm - N/A   Clear
3:55 AM 47.1 °F - 47.1 °F 100% 30.20 in 10.0 mi Calm Calm - N/A   Clear
4:26 AM 46.4 °F - 46.4 °F 100% 30.20 in 2.5 mi Calm Calm - N/A   Clear
4:28 AM 46.4 °F - 46.4 °F 100% 30.19 in 1.8 mi Calm Calm - N/A   Clear
4:29 AM 46.4 °F - 46.4 °F 100% 30.19 in 1.5 mi Calm Calm - N/A   Clear
4:31 AM 46.4 °F - 46.4 °F 100% 30.19 in 1.2 mi Calm Calm - N/A   Clear
4:32 AM 46.4 °F - 46.4 °F 100% 30.19 in 1.2 mi Calm Calm - N/A   Clear
4:35 AM 46.4 °F - 46.4 °F 100% 30.19 in 1.2 mi Calm Calm - N/A   Clear
4:36 AM 46.4 °F - 46.4 °F 100% 30.19 in 1.5 mi Calm Calm - N/A   Clear
4:37 AM 46.4 °F - 46.4 °F 100% 30.19 in 1.8 mi Calm Calm - N/A   Clear
4:38 AM 46.4 °F - 46.4 °F 100% 30.19 in 2.0 mi Calm Calm - N/A   Clear
4:40 AM 46.4 °F - 46.4 °F 100% 30.19 in 3.0 mi Calm Calm - N/A   Clear
4:45 AM 46.4 °F - 46.4 °F 100% 30.18 in 10.0 mi Calm Calm - N/A   Clear
4:55 AM 46.9 °F - 46.8 °F 99% 30.19 in 10.0 mi Calm Calm - N/A   Clear
5:17 AM 46.4 °F - 46.4 °F 100% 30.19 in 2.0 mi Calm Calm - N/A   Clear
5:18 AM 46.4 °F - 46.4 °F 100% 30.19 in 1.8 mi Calm Calm - N/A   Clear
5:19 AM 46.4 °F - 46.4 °F 100% 30.19 in 1.2 mi Calm Calm - N/A   Clear
5:20 AM 46.4 °F - 46.4 °F 100% 30.19 in 1.0 mi Calm Calm - N/A   Clear
5:22 AM 46.4 °F - 46.4 °F 100% 30.19 in 1.0 mi Calm Calm - N/A   Clear
5:25 AM 46.4 °F - 46.4 °F 100% 30.19 in 1.0 mi Calm Calm - N/A   Clear
5:26 AM 46.4 °F - 46.4 °F 100% 30.19 in 1.0 mi Calm Calm - N/A   Clear
5:27 AM 46.4 °F - 46.4 °F 100% 30.19 in 1.2 mi Calm Calm - N/A   Clear
5:28 AM 46.4 °F - 46.4 °F 100% 30.19 in 1.5 mi Calm Calm - N/A   Clear
5:29 AM 46.4 °F - 46.4 °F 100% 30.19 in 2.0 mi Calm Calm - N/A   Clear
5:30 AM 46.4 °F - 46.4 °F 100% 30.19 in 3.0 mi Calm Calm - N/A   Clear
5:47 AM 46.4 °F - 46.4 °F 100% 30.19 in 2.5 mi Calm Calm - N/A   Clear
5:49 AM 46.4 °F - 46.4 °F 100% 30.19 in 1.5 mi Calm Calm - N/A   Clear
5:51 AM 46.4 °F - 46.4 °F 100% 30.19 in 1.2 mi Calm Calm - N/A   Clear
5:52 AM 46.4 °F - 46.4 °F 100% 30.19 in 1.0 mi Calm Calm - N/A   Clear
5:53 AM 46.4 °F - 46.4 °F 100% 30.19 in 1.0 mi Calm Calm - N/A   Clear
5:54 AM 46.4 °F - 46.4 °F 100% 30.19 in 1.0 mi Calm Calm - N/A   Clear
5:55 AM 46.0 °F - 46.0 °F 100% 30.19 in 1.0 mi Calm Calm - N/A   Clear
6:00 AM 46.4 °F - 46.4 °F 100% 30.19 in 1.2 mi Calm Calm - N/A   Clear
6:02 AM 46.4 °F - 46.4 °F 100% 30.19 in 1.5 mi Calm Calm - N/A   Clear
6:03 AM 46.4 °F - 46.4 °F 100% 30.19 in 1.8 mi Calm Calm - N/A   Clear
6:04 AM 46.4 °F - 46.4 °F 100% 30.19 in 2.0 mi Calm Calm - N/A   Clear
6:08 AM 46.4 °F - 46.4 °F 100% 30.19 in 3.0 mi Calm Calm - N/A   Clear
6:19 AM 46.4 °F - 46.4 °F 100% 30.19 in 4.0 mi Calm Calm - N/A   Clear
6:20 AM 46.4 °F - 46.4 °F 100% 30.19 in 4.0 mi Calm Calm - N/A   Clear
6:49 AM 44.6 °F - 44.6 °F 100% 30.20 in 2.5 mi Calm Calm - N/A   Clear
6:52 AM 44.6 °F - 44.6 °F 100% 30.20 in 2.5 mi Calm Calm - N/A   Clear
6:54 AM 44.6 °F - 44.6 °F 100% 30.20 in 3.0 mi Calm Calm - N/A   Clear
6:55 AM 45.3 °F - 45.3 °F 100% 30.20 in 3.0 mi Calm Calm - N/A   Clear
6:56 AM 44.6 °F - 44.6 °F 100% 30.20 in 4.0 mi Calm Calm - N/A   Clear
7:00 AM 44.6 °F - 44.6 °F 100% 30.21 in 4.0 mi Calm Calm - N/A   Clear
7:55 AM 46.6 °F - 46.6 °F 100% 30.23 in 10.0 mi Calm Calm - N/A   Clear
7:58 AM 46.4 °F 44.3 °F 46.4 °F 100% 30.24 in 2.0 mi NNW 4.6 mph - N/A   Clear
7:59 AM 46.4 °F 44.3 °F 46.4 °F 100% 30.23 in 1.5 mi North 4.6 mph - N/A   Clear
8:00 AM 46.4 °F 45.2 °F 46.4 °F 100% 30.23 in 1.0 mi North 3.5 mph - N/A   Clear
8:01 AM 46.4 °F - 46.4 °F 100% 30.23 in 0.8 mi Calm Calm - N/A   Clear
8:04 AM 46.4 °F - 46.4 °F 100% 30.23 in 0.5 mi Calm Calm - N/A Fog Fog
9:55 AM 62.1 °F - 57.2 °F 84% 30.25 in 10.0 mi Calm Calm - N/A   Clear
10:55 AM 67.8 °F - 56.7 °F 67% 30.23 in 10.0 mi Calm Calm - N/A   Clear
11:55 AM 71.1 °F - 54.7 °F 56% 30.20 in 10.0 mi Variable 4.6 mph - N/A   Clear
12:55 PM 75.2 °F - 53.1 °F 46% 30.16 in 10.0 mi Variable 3.5 mph - N/A   Clear
1:55 PM 75.4 °F - 52.0 °F 44% 30.13 in 10.0 mi Calm Calm - N/A   Clear
2:55 PM 76.6 °F - 49.6 °F 39% 30.11 in 10.0 mi NE 5.8 mph - N/A   Clear
3:55 PM 75.6 °F - 49.6 °F 40% 30.10 in 10.0 mi NNE 4.6 mph - N/A   Clear
4:55 PM 73.2 °F - 53.2 °F 49% 30.10 in 10.0 mi Calm Calm - N/A   Clear
6:55 PM 59.7 °F - 53.6 °F 80% 30.12 in 10.0 mi Calm Calm - N/A   Clear
7:55 PM 57.9 °F - 54.3 °F 88% 30.13 in 10.0 mi Calm Calm - N/A   Clear
8:55 PM 55.2 °F - 53.4 °F 94% 30.14 in 10.0 mi Calm Calm - N/A   Partly Cloudy
9:55 PM 57.0 °F - 55.4 °F 94% 30.14 in 10.0 mi Calm Calm - N/A   Overcast
10:55 PM 57.4 °F - 54.7 °F 91% 30.13 in 10.0 mi Calm Calm - N/A   Overcast
11:55 PM 57.2 °F - 55.0 °F 92% 30.12 in 10.0 mi Calm Calm - N/A   Mostly Cloudy